| time (UTC) | temp F | wind direction | speed MPH | gust MPH | rain 1hr in | rain 24hr in | rain mn in | humidity % | barometer mb |
| 20260510142333 | 72 | 252 | 4.0 | 4.0 | 0.00 | 0.00 | 0.00 | 48 | 1016.5 |
| 20260510141830 | 71 | 206 | 2.0 | 2.0 | 0.00 | 0.00 | 0.00 | 49 | 1016.4 |
| 20260510141327 | 71 | 7 | 4.0 | 4.0 | 0.00 | 0.00 | 0.00 | 50 | 1016.4 |
| 20260510140825 | 70 | 214 | 2.0 | 2.0 | 0.00 | 0.00 | 0.00 | 51 | 1016.5 |
| 20260510140320 | 70 | 269 | 3.0 | 3.0 | 0.00 | 0.00 | 0.00 | 54 | 1016.4 |
| 20260510135819 | 69 | 162 | 0.0 | 1.0 | 0.00 | 0.00 | 0.00 | 52 | 1016.9 |
| 20260510135315 | 69 | 138 | 3.0 | 4.0 | 0.00 | 0.00 | 0.00 | 53 | 1016.7 |
| 20260510134813 | 69 | 150 | 0.0 | 1.0 | 0.00 | 0.00 | 0.00 | 54 | 1016.7 |
| 20260510134310 | 69 | 192 | 2.0 | 3.0 | 0.00 | 0.00 | 0.00 | 55 | 1016.6 |
| 20260510133806 | 69 | 194 | 3.0 | 4.0 | 0.00 | 0.00 | 0.00 | 54 | 1016.6 |
| 20260510133302 | 68 | 188 | 2.0 | 3.0 | 0.00 | 0.00 | 0.00 | 55 | 1016.7 |
| 20260510132757 | 67 | 281 | 1.0 | 2.0 | 0.00 | 0.00 | 0.00 | 56 | 1016.6 |
| 20260510132256 | 67 | 305 | 4.0 | 6.0 | 0.00 | 0.00 | 0.00 | 55 | 1016.6 |
| 20260510131752 | 67 | 283 | 3.0 | 4.0 | 0.00 | 0.00 | 0.00 | 57 | 1016.6 |
| 20260510131250 | 67 | 278 | 2.0 | 3.0 | 0.00 | 0.00 | 0.00 | 57 | 1016.7 |
| 20260510130746 | 66 | 252 | 1.0 | 2.0 | 0.00 | 0.00 | 0.00 | 58 | 1016.5 |
| 20260510130243 | 66 | 231 | 3.0 | 3.0 | 0.00 | 0.00 | 0.00 | 59 | 1016.4 |
| 20260510125740 | 65 | 225 | 2.0 | 4.0 | 0.00 | 0.00 | 0.00 | 60 | 1016.5 |
| 20260510125236 | 64 | 275 | 3.0 | 4.0 | 0.00 | 0.00 | 0.00 | 61 | 1016.6 |
| 20260510124732 | 64 | 209 | 3.0 | 4.0 | 0.00 | 0.00 | 0.00 | 62 | 1016.5 |
| 20260510124231 | 63 | 281 | 2.0 | 4.0 | 0.00 | 0.00 | 0.00 | 64 | 1016.5 |
| 20260510123725 | 62 | 310 | 6.0 | 8.0 | 0.00 | 0.00 | 0.00 | 65 | 1016.5 |
| 20260510123221 | 62 | 283 | 2.0 | 2.0 | 0.00 | 0.00 | 0.00 | 66 | 1016.4 |
| 20260510122718 | 62 | 274 | 2.0 | 3.0 | 0.00 | 0.00 | 0.00 | 67 | 1016.1 |
| 20260510122215 | 61 | 234 | 1.0 | 2.0 | 0.00 | 0.00 | 0.00 | 69 | 1016.4 |
| 20260510121711 | 60 | 275 | 1.0 | 1.0 | 0.00 | 0.00 | 0.00 | 70 | 1016.4 |
| 20260510121209 | 60 | 261 | 4.0 | 6.0 | 0.00 | 0.00 | 0.00 | 70 | 1016.4 |
| 20260510120705 | 60 | 280 | 1.0 | 1.0 | 0.00 | 0.00 | 0.00 | 72 | 1016.1 |
| 20260510120202 | 59 | 165 | 0.0 | 0.0 | 0.00 | 0.00 | 0.00 | 73 | 1016.3 |
| 20260510115657 | 58 | 269 | 4.0 | 4.0 | 0.00 | 0.00 | 0.00 | 74 | 1016.5 |
| 20260510115156 | 57 | 283 | 1.0 | 2.0 | 0.00 | 0.00 | 0.00 | 75 | 1016.2 |
| 20260510114651 | 57 | 273 | 2.0 | 2.0 | 0.00 | 0.00 | 0.00 | 76 | 1016.2 |
| 20260510114148 | 57 | 276 | 4.0 | 4.0 | 0.00 | 0.00 | 0.00 | 77 | 1016.1 |
| 20260510113643 | 56 | 285 | 3.0 | 3.0 | 0.00 | 0.00 | 0.00 | 78 | 1016.1 |
| 20260510113140 | 55 | 309 | 1.0 | 1.0 | 0.00 | 0.00 | 0.00 | 79 | 1016.1 |
| 20260510112637 | 55 | 273 | 3.0 | 4.0 | 0.00 | 0.00 | 0.00 | 81 | 1015.9 |
| 20260510112134 | 54 | 296 | 2.0 | 3.0 | 0.00 | 0.00 | 0.00 | 81 | 1015.7 |
| 20260510111630 | 54 | 267 | 1.0 | 1.0 | 0.00 | 0.00 | 0.00 | 82 | 1015.8 |
| 20260510111126 | 53 | 298 | 1.0 | 1.0 | 0.00 | 0.00 | 0.00 | 83 | 1015.8 |
| 20260510110622 | 53 | 266 | 3.0 | 3.0 | 0.00 | 0.00 | 0.00 | 85 | 1015.6 |
| 20260510110119 | 52 | 348 | 1.0 | 1.0 | 0.00 | 0.00 | 0.00 | 86 | 1015.5 |
| 20260510105615 | 52 | 36 | 0.0 | 1.0 | 0.00 | 0.00 | 0.00 | 87 | 1015.3 |
| 20260510105109 | 51 | 39 | 0.0 | 1.0 | 0.00 | 0.00 | 0.00 | 89 | 1015.2 |
| 20260510104606 | 50 | 351 | 1.0 | 2.0 | 0.00 | 0.00 | 0.00 | 92 | 1015.2 |
| 20260510104103 | 49 | 56 | 1.0 | 1.0 | 0.00 | 0.00 | 0.00 | 91 | 1015.0 |
| 20260510103600 | 49 | 56 | 1.0 | 1.0 | 0.00 | 0.00 | 0.00 | 90 | 1015.2 |
| 20260510103055 | 49 | 56 | 0.0 | 0.0 | 0.00 | 0.00 | 0.00 | 90 | 1015.1 |
| 20260510102551 | 50 | 56 | 0.0 | 0.0 | 0.00 | 0.00 | 0.00 | 89 | 1015.1 |
| 20260510102047 | 50 | 54 | 0.0 | 1.0 | 0.00 | 0.00 | 0.00 | 89 | 1015.0 |
| 20260510101545 | 51 | 54 | 0.0 | 0.0 | 0.00 | 0.00 | 0.00 | 89 | 1014.9 |
| 20260510101044 | 50 | 53 | 0.0 | 0.0 | 0.00 | 0.00 | 0.00 | 91 | 1015.0 |
| 20260510100539 | 49 | 62 | 1.0 | 1.0 | 0.00 | 0.00 | 0.00 | 92 | 1014.7 |
| 20260510100037 | 49 | 50 | 0.0 | 1.0 | 0.00 | 0.00 | 0.00 | 94 | 1014.8 |
| 20260510095533 | 48 | 79 | 0.0 | 1.0 | 0.00 | 0.00 | 0.00 | 94 | 1014.9 |
| 20260510095032 | 47 | 82 | 0.0 | 1.0 | 0.00 | 0.00 | 0.00 | 94 | 1014.7 |
| 20260510094527 | 47 | 82 | 0.0 | 0.0 | 0.00 | 0.00 | 0.00 | 94 | 1014.7 |
| 20260510094022 | 47 | 82 | 0.0 | 0.0 | 0.00 | 0.00 | 0.00 | 94 | 1014.6 |
| 20260510093518 | 47 | 82 | 0.0 | 0.0 | 0.00 | 0.00 | 0.00 | 94 | 1014.7 |
| 20260510093015 | 47 | 83 | 0.0 | 0.0 | 0.00 | 0.00 | 0.00 | 94 | 1014.4 |
| 20260510092513 | 47 | 82 | 1.0 | 1.0 | 0.00 | 0.00 | 0.00 | 94 | 1014.5 |
| 20260510092012 | 47 | 81 | 0.0 | 0.0 | 0.00 | 0.00 | 0.00 | 94 | 1014.4 |
| 20260510091509 | 47 | 81 | 0.0 | 0.0 | 0.00 | 0.00 | 0.00 | 93 | 1014.4 |
| 20260510091005 | 47 | 98 | 1.0 | 1.0 | 0.00 | 0.00 | 0.00 | 94 | 1014.3 |
| 20260510090503 | 47 | 96 | 0.0 | 0.0 | 0.00 | 0.00 | 0.00 | 93 | 1014.4 |
| 20260510085957 | 47 | 96 | 0.0 | 0.0 | 0.00 | 0.00 | 0.00 | 93 | 1014.4 |
| 20260510085453 | 47 | 96 | 0.0 | 0.0 | 0.00 | 0.00 | 0.00 | 93 | 1014.2 |
| 20260510084948 | 47 | 96 | 0.0 | 0.0 | 0.00 | 0.00 | 0.00 | 93 | 1014.4 |
| 20260510084446 | 47 | 96 | 0.0 | 0.0 | 0.00 | 0.00 | 0.00 | 93 | 1014.4 |
| 20260510083942 | 47 | 96 | 0.0 | 0.0 | 0.00 | 0.00 | 0.00 | 93 | 1014.2 |
| 20260510083439 | 47 | 96 | 0.0 | 0.0 | 0.00 | 0.00 | 0.00 | 93 | 1014.4 |
| 20260510082934 | 47 | 96 | 0.0 | 0.0 | 0.00 | 0.00 | 0.00 | 93 | 1014.3 |
| 20260510082433 | 47 | 96 | 0.0 | 0.0 | 0.00 | 0.00 | 0.00 | 93 | 1014.5 |
| 20260510081931 | 47 | 96 | 0.0 | 0.0 | 0.00 | 0.00 | 0.00 | 92 | 1014.2 |
| 20260510081427 | 47 | 96 | 0.0 | 0.0 | 0.00 | 0.00 | 0.00 | 93 | 1014.3 |
| 20260510080924 | 47 | 96 | 0.0 | 0.0 | 0.00 | 0.00 | 0.00 | 93 | 1014.1 |
| 20260510080423 | 47 | 96 | 0.0 | 0.0 | 0.00 | 0.00 | 0.00 | 92 | 1014.1 |
| 20260510075920 | 47 | 97 | 0.0 | 0.0 | 0.00 | 0.00 | 0.00 | 92 | 1013.8 |
| 20260510075418 | 47 | 96 | 0.0 | 0.0 | 0.00 | 0.00 | 0.00 | 92 | 1013.8 |
| 20260510074914 | 47 | 97 | 0.0 | 0.0 | 0.00 | 0.00 | 0.00 | 92 | 1013.9 |
| 20260510074411 | 47 | 97 | 0.0 | 0.0 | 0.00 | 0.00 | 0.00 | 92 | 1013.8 |
| 20260510073908 | 48 | 96 | 0.0 | 0.0 | 0.00 | 0.00 | 0.00 | 92 | 1013.9 |
| 20260510073403 | 48 | 96 | 0.0 | 0.0 | 0.00 | 0.00 | 0.00 | 91 | 1013.7 |
| 20260510072900 | 48 | 96 | 0.0 | 0.0 | 0.00 | 0.00 | 0.00 | 92 | 1013.6 |
| 20260510072357 | 48 | 96 | 0.0 | 0.0 | 0.00 | 0.00 | 0.00 | 91 | 1013.8 |
| 20260510071852 | 48 | 96 | 0.0 | 0.0 | 0.00 | 0.00 | 0.00 | 91 | 1013.6 |
| 20260510071349 | 48 | 96 | 0.0 | 0.0 | 0.00 | 0.00 | 0.00 | 91 | 1013.7 |
| 20260510070848 | 48 | 96 | 0.0 | 0.0 | 0.00 | 0.00 | 0.00 | 90 | 1013.6 |
| 20260510070344 | 48 | 96 | 0.0 | 0.0 | 0.00 | 0.00 | 0.00 | 91 | 1013.7 |
| 20260510065844 | 48 | 96 | 0.0 | 0.0 | 0.00 | 0.00 | 0.00 | 90 | 1013.7 |
| 20260510065341 | 48 | 96 | 0.0 | 0.0 | 0.00 | 0.00 | 0.00 | 90 | 1013.5 |
| 20260510064838 | 49 | 96 | 0.0 | 0.0 | 0.00 | 0.00 | 0.00 | 90 | 1013.5 |
| 20260510064336 | 49 | 96 | 0.0 | 0.0 | 0.00 | 0.00 | 0.00 | 89 | 1013.6 |
| 20260510063832 | 49 | 96 | 0.0 | 0.0 | 0.00 | 0.00 | 0.00 | 89 | 1013.7 |
| 20260510063329 | 49 | 97 | 0.0 | 0.0 | 0.00 | 0.00 | 0.00 | 88 | 1013.6 |
| 20260510062825 | 49 | 96 | 0.0 | 0.0 | 0.00 | 0.00 | 0.00 | 88 | 1013.7 |
| 20260510062321 | 49 | 96 | 0.0 | 1.0 | 0.00 | 0.00 | 0.00 | 88 | 1013.6 |
| 20260510061816 | 50 | 96 | 0.0 | 0.0 | 0.00 | 0.00 | 0.00 | 88 | 1013.8 |
| 20260510061313 | 50 | 96 | 0.0 | 0.0 | 0.00 | 0.00 | 0.00 | 87 | 1013.6 |
| 20260510060809 | 50 | 96 | 0.0 | 0.0 | 0.00 | 0.00 | 0.00 | 87 | 1013.8 |
| 20260510060307 | 50 | 97 | 0.0 | 0.0 | 0.00 | 0.00 | 0.00 | 87 | 1013.8 |
| 20260510055803 | 50 | 96 | 0.0 | 0.0 | 0.00 | 0.00 | 0.00 | 87 | 1013.7 |
| 20260510055301 | 50 | 96 | 0.0 | 0.0 | 0.00 | 0.00 | 0.00 | 86 | 1013.7 |
| 20260510054801 | 50 | 96 | 0.0 | 0.0 | 0.00 | 0.00 | 0.00 | 86 | 1014.0 |
| 20260510054258 | 50 | 96 | 0.0 | 0.0 | 0.00 | 0.00 | 0.00 | 86 | 1013.9 |
| 20260510053758 | 51 | 96 | 0.0 | 0.0 | 0.00 | 0.00 | 0.00 | 85 | 1013.7 |
| 20260510053253 | 51 | 96 | 0.0 | 0.0 | 0.00 | 0.00 | 0.00 | 85 | 1013.8 |
| 20260510052750 | 51 | 96 | 0.0 | 0.0 | 0.00 | 0.00 | 0.00 | 84 | 1013.7 |
| 20260510052246 | 51 | 96 | 0.0 | 0.0 | 0.00 | 0.00 | 0.00 | 84 | 1014.0 |
| 20260510051742 | 51 | 96 | 0.0 | 0.0 | 0.00 | 0.00 | 0.00 | 84 | 1013.8 |
| 20260510051239 | 51 | 96 | 0.0 | 0.0 | 0.00 | 0.00 | 0.00 | 83 | 1013.9 |
| 20260510050736 | 52 | 96 | 0.0 | 0.0 | 0.00 | 0.00 | 0.00 | 83 | 1013.7 |
| 20260510050233 | 52 | 96 | 0.0 | 1.0 | 0.00 | 0.00 | 0.00 | 83 | 1013.7 |
| 20260510045730 | 51 | 96 | 0.0 | 0.0 | 0.00 | 0.00 | 0.00 | 82 | 1013.8 |
| 20260510045226 | 52 | 96 | 0.0 | 0.0 | 0.00 | 0.00 | 0.00 | 81 | 1013.7 |
| 20260510044722 | 52 | 96 | 0.0 | 0.0 | 0.00 | 0.00 | 0.00 | 81 | 1013.6 |
| 20260510044221 | 52 | 96 | 0.0 | 0.0 | 0.00 | 0.00 | 0.00 | 81 | 1013.5 |
| 20260510043715 | 52 | 96 | 0.0 | 0.0 | 0.00 | 0.00 | 0.00 | 80 | 1013.5 |
| 20260510043213 | 52 | 96 | 0.0 | 0.0 | 0.00 | 0.00 | 0.00 | 80 | 1013.7 |
| 20260510042709 | 53 | 96 | 0.0 | 0.0 | 0.00 | 0.00 | 0.00 | 80 | 1013.7 |
| 20260510042206 | 53 | 96 | 0.0 | 0.0 | 0.00 | 0.00 | 0.00 | 80 | 1013.8 |
| 20260510041703 | 53 | 96 | 0.0 | 0.0 | 0.00 | 0.00 | 0.00 | 79 | 1013.8 |
| 20260510041200 | 53 | 96 | 0.0 | 0.0 | 0.00 | 0.00 | 0.00 | 79 | 1013.6 |
| 20260510040657 | 53 | 97 | 0.0 | 0.0 | 0.00 | 0.00 | 0.00 | 78 | 1013.7 |
| 20260510040154 | 53 | 97 | 0.0 | 0.0 | 0.00 | 0.00 | 0.00 | 78 | 1013.5 |
| 20260510035649 | 54 | 96 | 0.0 | 0.0 | 0.00 | 0.00 | 0.00 | 77 | 1013.3 |
| 20260510035145 | 54 | 96 | 0.0 | 1.0 | 0.00 | 0.00 | 0.00 | 78 | 1013.6 |
| 20260510034641 | 54 | 97 | 0.0 | 1.0 | 0.00 | 0.00 | 0.00 | 76 | 1013.6 |
| 20260510034139 | 55 | 103 | 0.0 | 0.0 | 0.00 | 0.00 | 0.00 | 76 | 1013.6 |
| 20260510033635 | 55 | 104 | 0.0 | 0.0 | 0.00 | 0.00 | 0.00 | 75 | 1013.5 |
| 20260510033133 | 55 | 103 | 0.0 | 0.0 | 0.00 | 0.00 | 0.00 | 75 | 1013.3 |
| 20260510032629 | 55 | 103 | 0.0 | 0.0 | 0.00 | 0.00 | 0.00 | 74 | 1013.3 |
| 20260510032124 | 55 | 95 | 1.0 | 1.0 | 0.00 | 0.00 | 0.00 | 74 | 1013.2 |
| 20260510031620 | 55 | 94 | 0.0 | 0.0 | 0.00 | 0.00 | 0.00 | 73 | 1013.5 |
| 20260510031117 | 56 | 94 | 0.0 | 0.0 | 0.00 | 0.00 | 0.00 | 73 | 1013.0 |
| 20260510030611 | 56 | 94 | 0.0 | 0.0 | 0.00 | 0.00 | 0.00 | 71 | 1013.2 |
| 20260510030109 | 56 | 125 | 0.0 | 0.0 | 0.00 | 0.00 | 0.00 | 70 | 1013.1 |
| 20260510025606 | 56 | 125 | 0.0 | 0.0 | 0.00 | 0.00 | 0.00 | 70 | 1013.0 |
| 20260510025103 | 56 | 126 | 1.0 | 1.0 | 0.00 | 0.00 | 0.00 | 71 | 1013.1 |
| 20260510024600 | 56 | 95 | 0.0 | 0.0 | 0.00 | 0.00 | 0.00 | 71 | 1012.9 |
| 20260510024056 | 56 | 69 | 0.0 | 0.0 | 0.00 | 0.00 | 0.00 | 71 | 1012.8 |
| 20260510023553 | 56 | 69 | 0.0 | 0.0 | 0.00 | 0.00 | 0.00 | 71 | 1013.0 |
| 20260510023050 | 56 | 69 | 0.0 | 0.0 | 0.00 | 0.00 | 0.00 | 71 | 1012.9 |
| 20260510022550 | 57 | 69 | 0.0 | 0.0 | 0.00 | 0.00 | 0.00 | 70 | 1013.0 |
| 20260510022050 | 57 | 69 | 0.0 | 0.0 | 0.00 | 0.00 | 0.00 | 70 | 1012.8 |
| 20260510021546 | 57 | 69 | 0.0 | 0.0 | 0.00 | 0.00 | 0.00 | 70 | 1012.9 |
| 20260510021044 | 57 | 69 | 0.0 | 0.0 | 0.00 | 0.00 | 0.00 | 69 | 1012.6 |
| 20260510020538 | 57 | 69 | 0.0 | 0.0 | 0.00 | 0.00 | 0.00 | 69 | 1012.7 |
| 20260510020034 | 58 | 69 | 0.0 | 0.0 | 0.00 | 0.00 | 0.00 | 68 | 1012.5 |
| 20260510015530 | 58 | 69 | 0.0 | 0.0 | 0.00 | 0.00 | 0.00 | 67 | 1012.4 |
| 20260510015026 | 58 | 69 | 0.0 | 0.0 | 0.00 | 0.00 | 0.00 | 66 | 1012.2 |
| 20260510014523 | 59 | 69 | 0.0 | 0.0 | 0.00 | 0.00 | 0.00 | 66 | 1012.6 |
| 20260510014020 | 59 | 69 | 0.0 | 0.0 | 0.00 | 0.00 | 0.00 | 66 | 1012.3 |
| 20260510013514 | 59 | 69 | 0.0 | 0.0 | 0.00 | 0.00 | 0.00 | 64 | 1012.0 |
| 20260510013010 | 60 | 69 | 0.0 | 0.0 | 0.00 | 0.00 | 0.00 | 63 | 1011.7 |
| 20260510012505 | 60 | 69 | 0.0 | 0.0 | 0.00 | 0.00 | 0.00 | 62 | 1011.8 |
| 20260510012000 | 61 | 69 | 0.0 | 0.0 | 0.00 | 0.00 | 0.00 | 61 | 1011.8 |
| 20260510011455 | 61 | 69 | 0.0 | 0.0 | 0.00 | 0.00 | 0.00 | 59 | 1011.6 |
| 20260510010951 | 62 | 69 | 0.0 | 0.0 | 0.00 | 0.00 | 0.00 | 58 | 1011.7 |
| 20260510010449 | 62 | 69 | 0.0 | 0.0 | 0.00 | 0.00 | 0.00 | 57 | 1011.5 |
| 20260510005945 | 62 | 69 | 0.0 | 0.0 | 0.00 | 0.00 | 0.00 | 56 | 1011.6 |
| 20260510005441 | 63 | 69 | 0.0 | 0.0 | 0.00 | 0.00 | 0.00 | 54 | 1011.5 |
| 20260510004939 | 64 | 69 | 0.0 | 0.0 | 0.00 | 0.00 | 0.00 | 54 | 1011.4 |
| 20260510004436 | 65 | 69 | 0.0 | 0.0 | 0.00 | 0.00 | 0.00 | 50 | 1011.3 |
| 20260510003934 | 66 | 69 | 0.0 | 1.0 | 0.00 | 0.00 | 0.00 | 48 | 1011.3 |
| 20260510003431 | 66 | 69 | 0.0 | 0.0 | 0.00 | 0.00 | 0.00 | 47 | 1011.4 |
| 20260510002930 | 67 | 69 | 0.0 | 0.0 | 0.00 | 0.00 | 0.00 | 45 | 1011.2 |
| 20260510002427 | 68 | 69 | 0.0 | 0.0 | 0.00 | 0.00 | 0.00 | 45 | 1011.2 |
| 20260510001923 | 68 | 69 | 0.0 | 0.0 | 0.00 | 0.00 | 0.00 | 43 | 1011.1 |
| 20260510001421 | 69 | 68 | 0.0 | 0.0 | 0.00 | 0.00 | 0.00 | 42 | 1011.0 |
| 20260510000919 | 69 | 70 | 0.0 | 0.0 | 0.00 | 0.00 | 0.00 | 42 | 1011.1 |
| 20260510000415 | 70 | 69 | 0.0 | 0.0 | 0.00 | 0.00 | 0.00 | 40 | 1010.8 |
| 20260509235911 | 71 | 84 | 0.0 | 0.0 | 0.00 | 0.00 | 0.00 | 39 | 1010.6 |
| 20260509235408 | 71 | 67 | 0.0 | 1.0 | 0.00 | 0.00 | 0.00 | 38 | 1010.7 |
| 20260509234904 | 71 | 139 | 0.0 | 1.0 | 0.00 | 0.00 | 0.00 | 38 | 1010.6 |
| 20260509234402 | 72 | 89 | 1.0 | 1.0 | 0.00 | 0.00 | 0.00 | 38 | 1010.5 |
| 20260509233859 | 72 | 201 | 1.0 | 1.0 | 0.00 | 0.00 | 0.00 | 36 | 1010.4 |
| 20260509233357 | 73 | 173 | 2.0 | 2.0 | 0.00 | 0.00 | 0.00 | 36 | 1010.3 |
| 20260509232852 | 73 | 173 | 1.0 | 2.0 | 0.00 | 0.00 | 0.00 | 35 | 1010.4 |
| 20260509232350 | 73 | 256 | 1.0 | 2.0 | 0.00 | 0.00 | 0.00 | 35 | 1010.4 |
| 20260509231846 | 73 | 185 | 2.0 | 2.0 | 0.00 | 0.00 | 0.00 | 35 | 1010.4 |
| 20260509231343 | 73 | 348 | 2.0 | 3.0 | 0.00 | 0.00 | 0.00 | 35 | 1010.3 |
| 20260509230841 | 74 | 300 | 3.0 | 3.0 | 0.00 | 0.00 | 0.00 | 35 | 1010.2 |
| 20260509230338 | 74 | 239 | 4.0 | 6.0 | 0.00 | 0.00 | 0.00 | 35 | 1010.2 |
| 20260509225833 | 75 | 278 | 3.0 | 3.0 | 0.00 | 0.00 | 0.00 | 36 | 1009.9 |
| 20260509225330 | 76 | 301 | 2.0 | 3.0 | 0.00 | 0.00 | 0.00 | 35 | 1009.8 |
| 20260509224826 | 76 | 180 | 1.0 | 2.0 | 0.00 | 0.00 | 0.00 | 34 | 1009.8 |
| 20260509224322 | 75 | 169 | 1.0 | 1.0 | 0.00 | 0.00 | 0.00 | 35 | 1010.0 |
| 20260509223819 | 74 | 270 | 2.0 | 2.0 | 0.00 | 0.00 | 0.00 | 36 | 1010.3 |
| 20260509223316 | 75 | 91 | 0.0 | 1.0 | 0.00 | 0.00 | 0.00 | 36 | 1010.0 |
| 20260509222813 | 76 | 348 | 3.0 | 4.0 | 0.00 | 0.00 | 0.00 | 34 | 1009.9 |
| 20260509222308 | 76 | 240 | 2.0 | 2.0 | 0.00 | 0.00 | 0.00 | 35 | 1009.9 |
| 20260509221804 | 75 | 54 | 1.0 | 1.0 | 0.00 | 0.00 | 0.00 | 35 | 1009.8 |
| 20260509221302 | 76 | 72 | 1.0 | 1.0 | 0.00 | 0.00 | 0.00 | 34 | 1010.2 |
| 20260509220756 | 77 | 211 | 1.0 | 1.0 | 0.00 | 0.00 | 0.00 | 34 | 1009.8 |
| 20260509220253 | 76 | 287 | 3.0 | 3.0 | 0.00 | 0.00 | 0.00 | 33 | 1009.9 |
| 20260509215748 | 75 | 305 | 4.0 | 4.0 | 0.00 | 0.00 | 0.00 | 35 | 1009.9 |
| 20260509215245 | 75 | 265 | 4.0 | 6.0 | 0.00 | 0.00 | 0.00 | 35 | 1009.9 |
| 20260509214742 | 75 | 164 | 2.0 | 2.0 | 0.00 | 0.00 | 0.00 | 35 | 1009.8 |
| 20260509214239 | 75 | 273 | 4.0 | 4.0 | 0.00 | 0.00 | 0.00 | 35 | 1009.8 |
| 20260509213736 | 76 | 269 | 2.0 | 3.0 | 0.00 | 0.00 | 0.00 | 35 | 1009.9 |
| 20260509213232 | 76 | 277 | 5.0 | 6.0 | 0.00 | 0.00 | 0.00 | 34 | 1009.5 |
| 20260509212730 | 76 | 234 | 2.0 | 3.0 | 0.00 | 0.00 | 0.00 | 35 | 1009.7 |
| 20260509212227 | 76 | 199 | 6.0 | 7.0 | 0.00 | 0.00 | 0.00 | 35 | 1009.3 |
| 20260509211722 | 76 | 177 | 3.0 | 3.0 | 0.00 | 0.00 | 0.00 | 35 | 1009.6 |
| 20260509211219 | 75 | 197 | 5.0 | 7.0 | 0.00 | 0.00 | 0.00 | 35 | 1009.5 |
| 20260509210715 | 75 | 216 | 2.0 | 2.0 | 0.00 | 0.00 | 0.00 | 34 | 1009.4 |
| 20260509210213 | 76 | 264 | 4.0 | 4.0 | 0.00 | 0.00 | 0.00 | 34 | 1009.3 |
| 20260509205713 | 76 | 287 | 5.0 | 6.0 | 0.00 | 0.00 | 0.00 | 34 | 1009.2 |
| 20260509205212 | 76 | 170 | 5.0 | 7.0 | 0.00 | 0.00 | 0.00 | 35 | 1009.3 |
| 20260509204709 | 76 | 168 | 3.0 | 4.0 | 0.00 | 0.00 | 0.00 | 34 | 1009.2 |
| 20260509204205 | 76 | 295 | 5.0 | 6.0 | 0.00 | 0.00 | 0.00 | 33 | 1009.3 |
| 20260509203701 | 76 | 189 | 4.0 | 4.0 | 0.00 | 0.00 | 0.00 | 33 | 1009.2 |
| 20260509203159 | 77 | 260 | 5.0 | 7.0 | 0.00 | 0.00 | 0.00 | 32 | 1009.1 |
| 20260509202655 | 77 | 213 | 9.0 | 14.0 | 0.00 | 0.00 | 0.00 | 32 | 1009.2 |
| 20260509202150 | 76 | 271 | 3.0 | 6.0 | 0.00 | 0.00 | 0.00 | 36 | 1009.3 |
| 20260509201645 | 75 | 296 | 6.0 | 8.0 | 0.00 | 0.00 | 0.00 | 34 | 1009.2 |
| 20260509201143 | 76 | 281 | 3.0 | 4.0 | 0.00 | 0.00 | 0.00 | 34 | 1009.2 |
| 20260509200638 | 76 | 203 | 5.0 | 9.0 | 0.00 | 0.00 | 0.00 | 32 | 1009.1 |
| 20260509200134 | 78 | 226 | 9.0 | 13.0 | 0.00 | 0.00 | 0.00 | 31 | 1009.4 |
| 20260509195630 | 77 | 190 | 2.0 | 2.0 | 0.00 | 0.00 | 0.00 | 34 | 1009.4 |
| 20260509195125 | 77 | 185 | 7.0 | 10.0 | 0.00 | 0.00 | 0.00 | 33 | 1009.3 |
| 20260509194625 | 77 | 272 | 2.0 | 2.0 | 0.00 | 0.00 | 0.00 | 35 | 1009.2 |
| 20260509194122 | 77 | 211 | 3.0 | 6.0 | 0.00 | 0.00 | 0.00 | 34 | 1009.3 |
| 20260509193618 | 78 | 221 | 7.0 | 10.0 | 0.00 | 0.00 | 0.00 | 32 | 1009.3 |
| 20260509193114 | 77 | 271 | 5.0 | 7.0 | 0.00 | 0.00 | 0.00 | 33 | 1009.4 |
| 20260509192611 | 76 | 195 | 4.0 | 4.0 | 0.00 | 0.00 | 0.00 | 35 | 1009.2 |
| 20260509192106 | 77 | 267 | 4.0 | 6.0 | 0.00 | 0.00 | 0.00 | 34 | 1009.2 |
| 20260509191601 | 78 | 173 | 2.0 | 3.0 | 0.00 | 0.00 | 0.00 | 33 | 1009.2 |
| 20260509191057 | 78 | 288 | 4.0 | 4.0 | 0.00 | 0.00 | 0.00 | 33 | 1009.3 |
| 20260509190554 | 77 | 174 | 3.0 | 4.0 | 0.00 | 0.00 | 0.00 | 34 | 1009.4 |
| 20260509190051 | 78 | 73 | 2.0 | 3.0 | 0.00 | 0.00 | 0.00 | 31 | 1009.4 |
| 20260509185549 | 78 | 161 | 4.0 | 7.0 | 0.00 | 0.00 | 0.00 | 33 | 1009.6 |
| 20260509185045 | 77 | 190 | 3.0 | 4.0 | 0.00 | 0.00 | 0.00 | 34 | 1009.7 |
| 20260509184543 | 77 | 166 | 4.0 | 6.0 | 0.00 | 0.00 | 0.00 | 34 | 1009.7 |
| 20260509184039 | 78 | 243 | 4.0 | 6.0 | 0.00 | 0.00 | 0.00 | 32 | 1009.5 |
| 20260509183534 | 77 | 154 | 3.0 | 3.0 | 0.00 | 0.00 | 0.00 | 32 | 1009.7 |
| 20260509183031 | 77 | 81 | 2.0 | 4.0 | 0.00 | 0.00 | 0.00 | 34 | 1009.4 |
| 20260509182527 | 77 | 168 | 2.0 | 3.0 | 0.00 | 0.00 | 0.00 | 33 | 1009.8 |
| 20260509182024 | 77 | 266 | 4.0 | 4.0 | 0.00 | 0.00 | 0.00 | 34 | 1010.0 |
| 20260509181523 | 77 | 172 | 3.0 | 4.0 | 0.00 | 0.00 | 0.00 | 35 | 1010.0 |
| 20260509181020 | 76 | 272 | 4.0 | 6.0 | 0.00 | 0.00 | 0.00 | 34 | 1010.0 |
| 20260509180515 | 76 | 280 | 4.0 | 6.0 | 0.00 | 0.00 | 0.00 | 35 | 1010.2 |
| 20260509180013 | 76 | 296 | 3.0 | 3.0 | 0.00 | 0.00 | 0.00 | 36 | 1010.2 |
| 20260509175508 | 76 | 195 | 5.0 | 6.0 | 0.00 | 0.00 | 0.00 | 34 | 1010.3 |
| 20260509175005 | 77 | 213 | 5.0 | 7.0 | 0.00 | 0.00 | 0.00 | 35 | 1010.3 |
| 20260509174501 | 74 | 186 | 2.0 | 2.0 | 0.00 | 0.00 | 0.00 | 42 | 1010.4 |
| 20260509173956 | 75 | 200 | 4.0 | 6.0 | 0.00 | 0.00 | 0.00 | 39 | 1010.4 |
| 20260509173450 | 75 | 91 | 2.0 | 3.0 | 0.00 | 0.00 | 0.00 | 43 | 1010.4 |
| 20260509172947 | 74 | 133 | 1.0 | 1.0 | 0.00 | 0.00 | 0.00 | 44 | 1010.7 |
| 20260509172444 | 74 | 175 | 6.0 | 7.0 | 0.00 | 0.00 | 0.00 | 42 | 1010.3 |
| 20260509171940 | 74 | 175 | 4.0 | 6.0 | 0.00 | 0.00 | 0.00 | 45 | 1010.7 |
| 20260509171436 | 74 | 206 | 2.0 | 3.0 | 0.00 | 0.00 | 0.00 | 43 | 1010.6 |
| 20260509170933 | 74 | 96 | 0.0 | 0.0 | 0.00 | 0.00 | 0.00 | 45 | 1010.6 |
| 20260509170428 | 74 | 131 | 1.0 | 1.0 | 0.00 | 0.00 | 0.00 | 48 | 1010.8 |
| 20260509165924 | 74 | 145 | 2.0 | 4.0 | 0.00 | 0.00 | 0.00 | 46 | 1010.9 |
| 20260509165418 | 73 | 141 | 3.0 | 3.0 | 0.00 | 0.00 | 0.00 | 48 | 1011.0 |
| 20260509164914 | 74 | 176 | 2.0 | 3.0 | 0.00 | 0.00 | 0.00 | 47 | 1011.0 |
| 20260509164411 | 72 | 165 | 1.0 | 2.0 | 0.00 | 0.00 | 0.00 | 46 | 1011.3 |
| 20260509163906 | 73 | 134 | 2.0 | 3.0 | 0.00 | 0.00 | 0.00 | 47 | 1011.5 |
| 20260509163404 | 72 | 122 | 1.0 | 2.0 | 0.00 | 0.00 | 0.00 | 50 | 1011.4 |
| 20260509162903 | 71 | 75 | 4.0 | 7.0 | 0.00 | 0.00 | 0.00 | 50 | 1011.3 |
| 20260509162401 | 72 | 116 | 1.0 | 1.0 | 0.00 | 0.00 | 0.00 | 51 | 1011.2 |
| 20260509161857 | 73 | 71 | 2.0 | 3.0 | 0.00 | 0.00 | 0.00 | 48 | 1011.2 |
| 20260509161354 | 73 | 164 | 2.0 | 2.0 | 0.00 | 0.00 | 0.00 | 46 | 1011.3 |
| 20260509160849 | 72 | 154 | 2.0 | 3.0 | 0.00 | 0.00 | 0.00 | 48 | 1011.3 |
| 20260509160345 | 72 | 141 | 3.0 | 4.0 | 0.00 | 0.00 | 0.00 | 47 | 1011.4 |
| 20260509155840 | 72 | 167 | 3.0 | 3.0 | 0.00 | 0.00 | 0.00 | 48 | 1011.2 |
| 20260509155337 | 71 | 97 | 4.0 | 4.0 | 0.00 | 0.00 | 0.00 | 49 | 1011.1 |
| 20260509154834 | 71 | 75 | 3.0 | 4.0 | 0.00 | 0.00 | 0.00 | 49 | 1011.1 |
| 20260509154330 | 71 | 125 | 2.0 | 3.0 | 0.00 | 0.00 | 0.00 | 50 | 1011.2 |
| 20260509153827 | 71 | 138 | 2.0 | 2.0 | 0.00 | 0.00 | 0.00 | 50 | 1011.4 |
| 20260509153324 | 69 | 173 | 2.0 | 2.0 | 0.00 | 0.00 | 0.00 | 51 | 1011.3 |
| 20260509152821 | 69 | 176 | 2.0 | 2.0 | 0.00 | 0.00 | 0.00 | 52 | 1011.8 |
| 20260509152317 | 69 | 146 | 2.0 | 3.0 | 0.00 | 0.00 | 0.00 | 53 | 1011.9 |
| 20260509151815 | 68 | 155 | 0.0 | 0.0 | 0.00 | 0.00 | 0.00 | 51 | 1012.0 |
| 20260509151310 | 67 | 156 | 1.0 | 1.0 | 0.00 | 0.00 | 0.00 | 54 | 1011.9 |
| 20260509150809 | 67 | 133 | 1.0 | 1.0 | 0.00 | 0.00 | 0.00 | 53 | 1011.9 |
| 20260509150306 | 68 | 87 | 3.0 | 3.0 | 0.00 | 0.00 | 0.00 | 51 | 1011.5 |
| 20260509145803 | 67 | 156 | 1.0 | 1.0 | 0.00 | 0.00 | 0.00 | 54 | 1011.6 |
| 20260509145306 | 67 | 137 | 1.0 | 1.0 | 0.00 | 0.00 | 0.00 | 54 | 1011.6 |
| 20260509144800 | 68 | 260 | 2.0 | 3.0 | 0.00 | 0.00 | 0.00 | 52 | 1011.9 |
| 20260509144257 | 67 | 146 | 1.0 | 1.0 | 0.00 | 0.00 | 0.00 | 53 | 1011.9 |
| 20260509143754 | 65 | 132 | 2.0 | 2.0 | 0.00 | 0.00 | 0.00 | 55 | 1011.9 |
| 20260509143251 | 65 | 132 | 2.0 | 3.0 | 0.00 | 0.00 | 0.00 | 56 | 1012.0 |
| 20260509142747 | 63 | 155 | 1.0 | 1.0 | 0.00 | 0.00 | 0.00 | 59 | 1012.4 |